Regional Weather Roundup
Issued by NWS Green Bay, WI

Home | Current Version | Previous Version | Graphics & Text | Print | Product List | Glossary Off
Versions: 1 2 3 4 5 6 7 8 9 10 11 12 13 14 15 16 17 18 19 20 21 22 23 24 25 26 27 28 29 30 31 32 33 34 35 36 37 38 39 40 41 42 43 44 45 46 47 48 49 50

000
ASUS43 KGRB 180859
RWRGRB

NORTH-CENTRAL AND NORTHEAST WISCONSIN REGIONAL WEATHER ROUNDUP
NATIONAL WEATHER SERVICE GREEN BAY WI
400 AM CDT SAT APR 18 2015

WIZ005-009-010>012-018-019-181000-
NORTH CENTRAL WISCONSIN

CITY           SKY/WX    TMP DP  RH WIND       PRES   REMARKS
IRONWOOD       CLEAR     43  32  65 E7        30.14R
MANITOWISH WTR NOT AVBL
ARBOR VITAE    NOT AVBL
EAGLE RIVER    NOT AVBL
LAND O LAKES   NOT AVBL
RHINELANDER    CLEAR     47  30  51 N6        30.12R
PHILLIPS       NOT AVBL
ANTIGO         NOT AVBL
TOMAHAWK       NOT AVBL
MERRILL        NOT AVBL
$$

WIZ013-073-181000-
NORTHEAST WISCONSIN

CITY           SKY/WX    TMP DP  RH WIND       PRES   REMARKS
IRON MOUNTAIN  CLEAR     45  33  63 N13       30.10R
MARINETTE      CLEAR     48  34  57 N13G21    30.06R
$$

WIZ017-030-035>037-045-181000-
CENTRAL WISCONSIN

CITY           SKY/WX    TMP DP  RH WIND       PRES   REMARKS
MEDFORD        NOT AVBL
WAUSAU         CLEAR     52  29  41 N5        30.07R
MOSINEE        NOT AVBL
MARSHFIELD     CLEAR     55  28  35 NE14      30.05R
WISC RAPIDS    CLEAR     43  33  68 NE3       30.05R
STEVENS POINT  NOT AVBL
WAUPACA        NOT AVBL
SHAWANO        NOT AVBL
CLINTONVILLE   NOT AVBL
$$

WIZ038-039-048-051-181000-
FOX VALLEY

CITY           SKY/WX    TMP DP  RH WIND       PRES   REMARKS
NWS GREEN BAY  CLEAR     45  41  86 N10G16    30.05R
APPLETON       NOT AVBL
OSHKOSH        PTCLDY    52  42  69 W3        30.02R
FOND DU LAC    PTCLDY    45  40  82 SW3       30.03R
$$

WIZ022-050-052-181000-
EAST CENTRAL WISCONSIN

CITY           SKY/WX    TMP DP  RH WIND       PRES   REMARKS
STURGEON BAY   CLEAR     45  34  65 N18G25    30.07R
MANITOWOC      NOT AVBL
SHEBOYGAN      PTCLDY    54  42  64 W6        30.02R
$$

LMZ563-521-522-541>543-181000-
LAKESHORE

STATION/POSITION TIME  TEMP    WIND        PRES    VSBY  WAVE
                       AIR SEA DIR/SP/G                  HT/PER
                 (UTC) (F)     (DEG/KT/KT) (MB)    (MI)  (FT/S)
SHEBOYGAN LKSHOR 0800   59     280/  9/ 11 1016.2R
KEWAUNEE LKSHORE 0800   45     280/  2/  3 1015.4R
NORTHPORT PIER   0800   41     310/ 12/ 15 1016.9R
SISTER BAY LKSHO 0800   48      10/ 19/ 25   N/A
CHAMBERS ISLAND  0800   42     340/ 13/ 16 1018.3R
MENOMINEE LKSHOR 0800   48     350/ 18/ 21 1018.2R
$$



USA.gov is the U.S. government's official web portal to all federal, state and local government web resources and services.